Regional Weather Roundup
Issued by NWS

Home | Current Version | Previous Version | Text Only | Print | Product List | Glossary Off
Versions: 1 2 3 4 5 6 7 8 9 10 11 12 13 14 15 16 17 18 19 20 21 22 23 24 25 26 27

000
ASUS45 KBOU 240807
RWRCO

WEATHER ROUNDUP FOR COLORADO
NATIONAL WEATHER SERVICE DENVER/BOULDER CO
200 AM MDT MON APR 24 2017

NOTE: "FAIR" INDICATES FEW OR NO CLOUDS BELOW 12000 FEET WITH NO
SIGNIFICANT WEATHER AND/OR OBSTRUCTIONS TO VISIBILITY.

COZ001>005-013-030-031-240900-
...NORTHWEST COLORADO...

CITY           SKY/WX    TMP DP  RH WIND       PRES   REMARKS
CRAIG          LGT RAIN  43  40  89 SW5       29.86F
HAYDEN         MOCLDY    43  36  75 SW9       29.87S
MEEKER         MOCLDY    45  40  82 NE9       29.85F
MOUNT WERNER   NOT AVBL
STEAMBOAT SPGS MOCLDY    43  37  79 N5        29.85F
WALDEN           N/A     39  30  70 CALM      29.88S
$$

COZ006>008-011-240900-
...WEST CENTRAL VALLEYS...

CITY           SKY/WX    TMP DP  RH WIND       PRES   REMARKS
GRAND JUNCTION FAIR      55  33  43 CALM      29.75F
MONTROSE       MOCLDY    59  26  28 NW13      29.83S
EAGLE          CLOUDY    52  32  46 W22G29    29.87R
RIFLE          CLOUDY    55  36  48 N9        29.82R
DELTA          FAIR      64  27  24 W13       29.77F
NUCLA          FAIR      54  27  35 S5        29.88S
$$

COZ017>023-064>068-240900-
...SOUTHWEST COLORADO...

CITY           SKY/WX    TMP DP  RH WIND       PRES   REMARKS
DURANGO        FAIR      52  17  25 SW7       29.88F
CORTEZ         FAIR      55  21  26 S15       29.85S
PAGOSA SPRINGS FAIR      52  17  24 SW6       29.93F
TELLURIDE      CLOUDY    48  20  33 W10       30.00S
WOLF CREEK PAS MOCLDY    32  18  55 SW21G39   30.11F WCI  20
$$

COZ009-010-012-014-032>034-037-058>063-240900-
...CENTRAL COLORADO...

CITY           SKY/WX    TMP DP  RH WIND       PRES   REMARKS
ASPEN          LGT RAIN  45  36  70 S13G23    29.90S
BUENA VISTA    MOCLDY    54  18  24 S12G23    29.82F
COPPER MTN     LGT SNOW  34  30  86 W10G21    30.03R VSB 3/4 WCI  26
BERTHOUD PASS  HVY SNOW  25  14  63 NW22G28   30.01R VSB<1/4 WCI  10
COTTONWOOD PAS CLOUDY    50  14  23 NW9       29.91R
GUNNISON       FAIR      53  24  32 W15G40    29.88R
KREMMLING      CLOUDY    50  34  53 N6        29.87F
LEADVILLE      LGT SNOW  33  31  92 NE6       29.95R FOG     WCI  28
MONARCH PASS   MOCLDY    34  18  51 SW40G47   30.10R WCI  18
SALIDA         FAIR      52  18  25 NW8       29.89R
SUNLIGHT       LGT SNOW  30  30 100 SW14G23   30.00F WCI  20
WILKERSON PASS FAIR      36  14  41 SW14      29.99F
$$

COZ069>075-240900-
...SAN LUIS VALLEY/SANGRE DE CRISTO MOUNTAINS...

CITY           SKY/WX    TMP DP  RH WIND       PRES   REMARKS
ALAMOSA        FAIR      46  22  38 SW13      29.86S
LA VETA PASS   FAIR      43  19  39 S25G46    30.06F
SAGUACHE       FAIR      41  19  42 NW14      29.86S
$$

COZ035-036-038>040-240900-
...NORTHERN COLORADO FRONT RANGE...

CITY           SKY/WX    TMP DP  RH WIND       PRES   REMARKS
DENVER INTL AP MOCLDY    52  36  54 SW12      29.63F
DMNS CITY PARK   N/A     50  34  55 N6G12     29.64R
AURORA         MOCLDY    50  33  50 S13       29.64F
FRONT RANGE AP FAIR      50  36  57 S8        29.63F
ERIE MUNI ARPT FAIR      43  34  70 CALM      29.64R
BOULDER MUN AP FAIR      52  28  40 SW7       29.64R
CENTENNIAL     FAIR      50  27  40 S10       29.65F
BROOMFIELD     FAIR      54  27  35 W6        29.65S
FORT COLLINS   FAIR      49  37  63 S6        29.64S
LONGMONT       FAIR      47  37  67 NE5       29.67R
$$

COZ041-046-047-076>085-087-088-240900-
...PIKES PEAK/PALMER DIVIDE AND SOUTHERN FOOTHILLS...

CITY           SKY/WX    TMP DP  RH WIND       PRES   REMARKS
COLO. SPRINGS  FAIR      53  31  42 E7        29.70F
A. F. ACADEMY  FAIR      50  26  39 SE3       29.69F
SCHRIEVER AFB  FAIR      53  26  35 SW8       29.71F
ELLICOTT       FAIR     N/A N/A N/A SW7       29.69F
FALCON         FAIR      50  25  38 W7G16     29.74F
FORT CARSON    FAIR      57  23  26 W9        29.67F
LIMON          FAIR      37  36  96 N7        29.65F
MONUMENT HILL  FAIR      50  21  32 SW10      29.74F
TRINIDAD       FAIR      52  32  46 NE7       29.75F
$$

COZ042>045-048>051-090-091-240900-
...NORTHEAST COLORADO...

CITY           SKY/WX    TMP DP  RH WIND       PRES   REMARKS
GREELEY ARPT   FAIR      51  39  63 N12       29.64R
AKRON          FAIR      53  38  56 SW20      29.56F
BURLINGTON     NOT AVBL
WRAY           NOT AVBL
STERLING       FAIR      46  41  81 NW6       29.54F
HOLYOKE        FAIR      46  39  76 SE7       29.56F
FORT MORGAN    FAIR      45  38  75 NW8       29.59S
$$

COZ086-089-092>099-240900-
...SOUTHEAST COLORADO...

CITY           SKY/WX    TMP DP  RH WIND       PRES   REMARKS
PUEBLO         FAIR      48  42  80 S5        29.64F
LA JUNTA       FAIR      63  35  35 SW26      29.62F
LAMAR          FAIR      63  36  36 S23G33    29.57F
SPRINGFIELD      N/A     53  35  50 S21       29.71F
$$




USA.gov is the U.S. government's official web portal to all federal, state and local government web resources and services.